Location: Huntsville
(34.7300°N, 86.5860°W)
Time: 07:25:59
(UTC-06:00)

ISS - Visible Passes

Search period start: 13 December 2018 00:00
Search period end: 23 December 2018 00:00
Orbit: 401 x 408 km, 51.6° (Epoch: 13 December)

Date Brightness Start Highest point End Pass type
(mag) Time Alt. Az. Time Alt. Az. Time Alt. Az.
13 Dec -3.9 17:18:07 10° NW 17:21:21 62° NE 17:24:34 10° ESE visible
14 Dec -1.0 18:03:00 10° W 18:05:25 20° SW 18:07:51 10° S visible
15 Dec -2.4 17:10:17 10° WNW 17:13:23 42° SW 17:16:28 10° SSE visible
20 Dec -0.5 06:19:48 10° S 06:22:02 17° SE 06:24:17 10° E visible
22 Dec -2.7 06:10:35 10° SSW 06:13:46 48° SE 06:16:57 10° ENE visible
